Location: Skalnate Pleso
(49.1889°N, 20.2450°E)
Time: 14:05:27
(UTC+02:00)

COSMOS 2428 - Pass Details

Date: 26 February 2020
Orbit: 846 x 856 km, 70.9° (Epoch: 05 April)

Event Time Altitude Azimuth Distance (km) Brightness Sun altitude
Exits shadow 03:40:41 12° 335° (NNW) 2,391 5.0 -27.9°
Maximum altitude 03:40:48 12° 336° (NNW) 2,390 5.0 -27.9°
Drops below altitude 10° 03:42:42 10° 355° (N) 2,501 5.3 -27.6°
Sets 03:47:13 0° 28° (NNE) 3,439 6.5 -26.9°
